Vertical_Velocity
-0 -1 -2 2 1 3 5 3 -3 6 11 6 6 -0 -2 -2 -1 6 1 -7 -19 4 13 0 0 1 5 2 -5 11 3 -0 -7 1 -13 1 -3 -2 6 1 -2 6 2 3 -2
-1 -3 1 0 -0 -4 -1 -2 2 8 2 5 -2 -0 1 -1 2 -2 -6 -1 -5 7 5 0 -2 0 5 1 2 -6 4 -8 -5 -5 -5 0 -4 -1 -8 -9 -2 7 2 2 0
-3 4 -1 -3 0 -1 -3 -5 -5 2 -3 0 -0 0 -0 3 -0 -24 -4 -7 1 7 9 5 15 -2 5 -0 -1 1 -7 -3 -2 -4 -1 -1 1 1 -0 -4 4 3 31 -1 0
-1 -5 -0 0 -2 -4 -2 0 -0 -5 -3 -3 -0 -0 0 -0 -3 7 3 4 7 1 11 2 9 6 1 0 0 -0 1 -4 2 0 -1 -0 -1 -3 1 -13 5 0 -4 20 -0
2 -0 1 -6 -2 -2 -3 -0 3 -2 -5 -0 -2 -1 2 4 -11 7 8 17 18 2 -5 2 1 -1 -1 -1 1 2 -1 4 -0 0 -1 -4 -2 -4 -14 -4 4 -1 -0 12 2
2 1 2 0 1 -6 -2 -0 1 3 -1 -3 -1 -1 -1 -2 -9 -0 2 -5 -8 -0 -9 7 -8 -5 -3 -3 1 -3 1 2 4 -3 0 -4 -1 4 -21 -5 -2 5 2 1 6
3 2 -3 0 1 -1 -4 0 -1 1 4 -2 -0 1 1 -9 -1 -4 0 -1 -2 -6 -2 2 1 1 2 1 -3 1 -4 1 3 0 -1 1 7 -3 -25 16 -6 -1 3 3 4
1 -1 -3 1 -1 2 -6 -3 0 -4 4 2 2 -3 -4 -13 -17 -19 7 1 4 14 -18 -1 8 4 1 5 5 -3 -4 0 -2 2 4 -8 -6 -7 -1 6 -6 -3 -2 10 2
1 1 0 3 -1 2 -2 -2 -1 -0 0 6 2 -1 -8 13 -18 0 -26 13 1 2 4 18 6 -1 0 -2 -2 2 -2 1 5 -2 1 -1 -1 -5 -8 -2 -5 -5 -1 1 8
1 -5 2 3 -0 0 0 -3 0 3 -1 2 2 1 1 -1 3 4 9 1 5 7 13 21 4 -1 0 1 -12 -4 2 3 -2 -1 3 4 -0 2 2 2 -12 -1 -2 1 -1
-2 -1 1 -1 1 -0 1 -2 -3 -1 -1 -3 3 -2 -1 1 2 1 -0 1 -1 3 2 6 2 -6 -6 -2 -1 -2 -1 -2 1 -1 2 -2 -1 -2 -0 3 -0 -3 -2 -2 -3
2 -1 -1 -1 -1 -0 -2 0 4 0 -4 0 -2 0 -1 -3 2 2 2 -10 -5 1 2 12 -2 -2 -1 0 -2 0 -1 1 1 1 1 0 -2 -2 -1 -2 -5 -2 -2 -4 4
2 -5 2 2 -2 1 -1 -1 -2 1 1 -2 2 -2 -1 3 1 4 0 3 -1 2 0 -8 -4 -0 -2 1 -1 1 -3 -0 -4 1 -0 -1 -0 1 -4 1 3 -2 -1 2 -1
-1 4 -2 -3 2 -1 1 -3 -0 -3 -2 1 0 -2 -1 3 -2 4 0 -2 1 -1 -1 -0 4 -3 1 -1 -4 -1 -1 -1 -0 -3 -3 -3 -6 -1 -1 -2 1 -3 -4 -3 1
5 2 -2 3 1 -2 4 -2 -2 -6 -7 -10 1 1 3 1 -0 -4 -2 8 -1 1 -4 -6 3 2 1 -3 -3 0 -1 -2 -1 -1 -1 0 -2 -11 1 0 -4 -3 -1 -2 2
6 -2 4 -0 -1 -1 3 0 -2 -17 -9 5 0 1 -3 -3 0 1 -10 3 -3 -2 0 2 1 -2 -1 1 -1 -1 -3 -3 -2 -2 -2 -2 -3 -8 -2 -6 -0 -2 -3 -3 2
-0 6 1 -2 1 -0 -3 -1 -11 -9 -4 2 1 1 0 1 2 -0 1 1 -3 -3 -0 1 -0 0 -1 -5 -0 -2 -3 -2 -2 -0 -6 -0 2 -19 -2 -1 -2 -2 -4 -1 1
1 3 3 2 -2 -0 -0 -5 -9 -5 -0 -0 -1 1 -1 -1 2 1 1 0 -1 0 -1 -1 6 -0 -0 -2 -6 -1 -5 -7 -5 -2 -3 -1 -6 -17 -3 -1 -0 -1 -1 3 5
-1 -0 1 4 0 -3 -1 -5 -10 -2 -1 1 4 0 2 1 -5 -2 -0 -1 -1 -0 -6 -3 1 -1 -1 0 -4 -3 -2 -4 -5 -1 -4 -5 -9 -9 -1 -2 -0 -0 2 -1 1
1 0 -1 1 5 -0 -2 -2 -1 -0 0 -0 1 -1 0 2 -1 -0 0 -3 -0 -1 -1 2 -3 0 0 0 0 -4 -4 -7 -4 -3 -1 -3 -1 -9 -2 -3 -1 1 0 3 3
-1 0 1 -1 3 3 -1 -3 -0 -1 2 -0 -0 1 -1 -1 -1 -0 -1 1 -0 1 -1 -2 -8 5 3 -0 -3 -2 1 -0 -4 -4 -3 -1 -9 -5 -2 -2 -2 -1 -1 -2 -0
-2 -3 1 2 5 0 -0 -3 2 0 -0 -1 1 1 -1 -0 -0 0 -3 -1 -0 -3 -1 -2 -3 -0 -4 -0 0 -2 -1 -2 -1 -3 -1 -3 -15 -0 -0 -1 -1 -1 0 1 1
-0 -2 2 -1 1 -1 -4 -0 -1 -1 0 -1 -0 0 -0 -0 -5 -0 -0 1 -0 -1 -4 -3 -1 -0 1 -5 -1 1 0 -1 -0 -1 -3 -2 -11 -0 -1 -0 1 -2 -0 -0 1
-1 -4 -0 -1 2 1 -0 -1 -1 2 -0 0 -0 -0 -1 -1 -1 -0 1 0 0 -1 -3 -3 -0 -6 -8 -8 -4 2 1 0 0 1 -3 -7 -3 -3 -1 -0 -0 1 2 0 0
-1 -1 0 -1 -0 -0 -0 1 -0 -1 -0 -1 -3 -0 2 -0 -0 0 0 1 1 2 0 -4 -2 -1 -1 -1 0 -2 -1 -0 3 -8 2 -6 -1 -6 -2 -2 -5 -3 2 1 -1
-1 -1 -0 0 0 1 -1 1 1 -3 0 1 -2 -0 0 -1 2 -1 -2 -1 -4 0 -0 -1 -2 -1 -1 -0 0 0 -0 0 -0 -1 2 2 -7 -1 -1 1 1 -2 -0 -3 -4
-0 2 0 2 -1 -2 2 -1 1 1 3 -1 1 1 -1 2 3 3 0 0 -2 -5 -0 -2 -2 -2 -3 0 -1 -2 -7 -2 -1 0 -5 0 -27 -0 -1 0 -3 -1 -0 -5 -6
Height
1499 1494 1490 1486 1482 1479 1477 1474 1473 1472 1472 1472 1472 1472 1473 1474 1475 1477 1476 1479 1486 1489 1492 1497 1501 1504 1506 1508 1511 1512 1520 1520 1521 1526 1517 1523 1527 1526 1524 1522 1518 1516 1515 1517 1520
1498 1493 1488 1485 1480 1477 1474 1472 1471 1471 1470 1470 1470 1470 1470 1471 1472 1471 1475 1479 1483 1486 1489 1493 1497 1502 1505 1506 1509 1511 1517 1509 1511 1514 1510 1522 1528 1530 1527 1522 1519 1519 1516 1519 1521
1497 1493 1487 1482 1479 1476 1473 1471 1470 1470 1469 1469 1468 1468 1468 1470 1472 1466 1472 1476 1480 1484 1487 1492 1497 1501 1503 1505 1507 1509 1511 1510 1512 1518 1518 1524 1527 1531 1531 1525 1524 1526 1521 1519 1521
1496 1492 1487 1483 1479 1477 1474 1471 1468 1468 1468 1468 1468 1467 1467 1469 1472 1466 1466 1472 1477 1482 1485 1489 1495 1499 1501 1500 1503 1507 1506 1508 1513 1517 1521 1523 1526 1530 1532 1526 1526 1526 1527 1523 1522
1495 1493 1487 1483 1479 1477 1475 1473 1471 1468 1468 1468 1468 1467 1467 1468 1465 1464 1466 1469 1473 1476 1480 1486 1491 1496 1497 1499 1503 1502 1501 1506 1511 1516 1520 1525 1528 1533 1526 1524 1524 1525 1522 1523 1522
1496 1491 1488 1483 1479 1477 1476 1474 1472 1471 1469 1468 1468 1468 1468 1469 1463 1463 1463 1465 1467 1472 1477 1484 1487 1494 1497 1498 1501 1500 1501 1506 1511 1517 1519 1525 1530 1534 1518 1525 1524 1524 1522 1524 1523
1495 1492 1487 1483 1480 1477 1475 1474 1472 1472 1470 1468 1468 1468 1467 1467 1462 1463 1461 1461 1465 1469 1474 1482 1486 1492 1492 1498 1500 1500 1508 1511 1513 1515 1519 1523 1532 1532 1518 1525 1524 1525 1525 1526 1524
1493 1490 1486 1482 1480 1477 1475 1474 1472 1471 1470 1468 1467 1467 1465 1464 1463 1460 1460 1460 1462 1469 1477 1481 1486 1490 1492 1495 1498 1503 1510 1515 1512 1513 1514 1524 1525 1521 1525 1528 1523 1522 1525 1525 1524
1491 1487 1483 1480 1479 1477 1474 1473 1472 1470 1469 1469 1468 1467 1465 1465 1462 1460 1460 1461 1464 1469 1476 1482 1484 1490 1493 1496 1504 1505 1515 1513 1511 1508 1507 1517 1516 1514 1522 1524 1521 1521 1522 1522 1522
1489 1486 1483 1479 1478 1476 1474 1473 1472 1470 1469 1469 1468 1469 1465 1465 1464 1465 1463 1462 1466 1470 1477 1481 1486 1490 1493 1495 1494 1495 1505 1501 1504 1503 1505 1512 1511 1510 1514 1519 1518 1514 1517 1519 1520
1488 1484 1480 1479 1477 1476 1474 1472 1476 1473 1469 1467 1468 1466 1464 1464 1463 1463 1464 1465 1467 1471 1474 1474 1485 1481 1481 1488 1488 1496 1501 1507 1503 1500 1504 1508 1512 1508 1510 1514 1515 1512 1513 1514 1517
1485 1481 1477 1475 1475 1474 1474 1473 1473 1473 1469 1466 1466 1465 1463 1463 1464 1465 1468 1473 1474 1470 1465 1480 1479 1484 1486 1487 1489 1493 1502 1505 1503 1502 1507 1511 1512 1508 1506 1505 1508 1508 1508 1509 1512
1483 1479 1475 1472 1473 1472 1473 1474 1473 1472 1471 1466 1464 1463 1462 1464 1463 1465 1469 1472 1479 1479 1471 1471 1474 1482 1485 1489 1492 1497 1504 1508 1507 1505 1507 1509 1513 1510 1502 1502 1502 1503 1504 1505 1507
1479 1474 1471 1471 1473 1471 1471 1472 1473 1474 1479 1467 1464 1464 1463 1463 1464 1460 1470 1470 1475 1469 1473 1474 1476 1482 1487 1491 1493 1499 1498 1501 1506 1511 1518 1507 1521 1506 1497 1497 1497 1494 1497 1498 1501
1474 1472 1469 1468 1470 1470 1472 1471 1472 1475 1495 1469 1464 1464 1463 1463 1467 1461 1459 1467 1471 1469 1474 1480 1475 1480 1487 1490 1491 1497 1498 1502 1507 1515 1514 1516 1522 1499 1496 1497 1487 1485 1487 1492 1497
1471 1468 1466 1467 1469 1471 1472 1471 1473 1485 1474 1463 1466 1466 1466 1462 1459 1465 1462 1460 1468 1469 1475 1477 1479 1484 1487 1489 1490 1495 1502 1509 1516 1521 1536 1516 1518 1499 1491 1482 1482 1480 1480 1485 1490
1468 1464 1464 1466 1467 1468 1470 1472 1482 1490 1464 1463 1463 1464 1465 1464 1464 1464 1465 1468 1474 1473 1472 1478 1487 1487 1487 1493 1493 1496 1505 1524 1526 1524 1530 1520 1518 1480 1478 1478 1477 1478 1477 1479 1484
1466 1464 1464 1467 1467 1467 1469 1475 1486 1471 1459 1456 1460 1460 1459 1460 1468 1467 1470 1471 1471 1470 1476 1479 1491 1489 1492 1493 1495 1500 1503 1523 1521 1530 1523 1522 1511 1481 1474 1471 1471 1472 1474 1476 1479
1465 1465 1466 1468 1467 1468 1471 1487 1476 1471 1461 1457 1457 1458 1460 1460 1463 1468 1470 1471 1469 1468 1474 1487 1491 1493 1494 1495 1496 1503 1514 1508 1525 1531 1546 1520 1503 1481 1472 1471 1469 1469 1470 1472 1478
1465 1467 1468 1467 1467 1468 1469 1470 1468 1460 1458 1460 1460 1453 1456 1458 1463 1468 1473 1471 1470 1469 1470 1481 1494 1495 1496 1496 1499 1499 1503 1512 1530 1537 1523 1510 1506 1490 1473 1471 1470 1469 1468 1472 1478
1466 1467 1467 1468 1468 1468 1472 1472 1463 1459 1460 1461 1461 1458 1455 1457 1460 1466 1468 1470 1468 1471 1472 1477 1486 1499 1499 1497 1494 1503 1504 1506 1508 1518 1516 1511 1495 1477 1472 1471 1469 1467 1469 1472 1477
1466 1467 1467 1468 1469 1465 1469 1459 1457 1456 1459 1461 1461 1459 1458 1458 1461 1463 1465 1464 1465 1470 1476 1480 1490 1496 1496 1495 1495 1497 1498 1502 1503 1510 1520 1520 1495 1469 1467 1465 1464 1467 1469 1473 1477
1466 1467 1467 1466 1465 1468 1462 1456 1455 1458 1459 1460 1462 1461 1460 1460 1465 1464 1463 1462 1464 1469 1474 1478 1491 1494 1497 1500 1496 1493 1493 1495 1496 1505 1507 1512 1484 1466 1466 1463 1465 1467 1470 1474 1477
1469 1470 1468 1468 1466 1465 1465 1462 1456 1456 1458 1460 1461 1462 1460 1460 1461 1466 1468 1468 1468 1469 1472 1475 1485 1488 1490 1486 1488 1488 1488 1490 1494 1495 1486 1483 1476 1466 1466 1466 1467 1468 1470 1473 1476
1470 1471 1471 1469 1466 1468 1466 1465 1460 1457 1456 1457 1461 1464 1465 1463 1462 1466 1467 1469 1469 1470 1472 1474 1487 1489 1484 1480 1484 1485 1484 1482 1484 1481 1480 1468 1472 1466 1465 1465 1464 1467 1469 1472 1475
1470 1470 1471 1471 1470 1468 1467 1471 1467 1464 1460 1460 1462 1464 1463 1466 1467 1466 1465 1467 1466 1470 1471 1474 1489 1487 1490 1478 1479 1479 1479 1479 1474 1475 1474 1471 1467 1460 1460 1461 1463 1463 1465 1469 1471
1473 1472 1474 1475 1472 1470 1474 1472 1470 1466 1462 1464 1466 1466 1464 1467 1467 1465 1463 1462 1462 1466 1472 1476 1486 1496 1499 1485 1479 1481 1468 1469 1467 1464 1465 1469 1448 1457 1457 1456 1455 1457 1461 1461 1467